Wind_Speed
12 10 9 7 4 6 4 3 7 7 7 7 5 4 4 4 4 4 5 6 6 7 4 4 4 6 9 12 16 12 11 14 11 17 28 33 35 40 37 42 33 31 27
12 9 9 6 3 4 5 6 9 9 8 8 8 4 3 3 5 4 4 4 5 6 6 5 6 6 9 12 10 11 11 16 28 20 25 34 40 35 40 33 32 31 27
12 10 9 4 4 6 5 6 8 9 8 7 8 5 3 5 7 5 5 5 6 5 5 6 7 8 7 7 11 15 18 23 25 34 28 34 32 36 33 33 32 29 25
11 11 9 5 7 7 7 7 8 9 8 7 7 6 6 6 6 6 6 5 6 6 5 6 9 12 7 7 13 21 26 27 27 32 34 31 27 31 32 32 28 28 24
12 12 12 7 9 6 10 9 9 8 9 8 8 8 7 7 6 7 6 5 6 8 9 11 11 13 10 9 19 25 26 30 28 29 27 25 27 28 27 28 28 24 20
12 12 14 9 11 6 10 10 10 9 12 11 10 9 8 7 10 9 6 5 6 10 15 14 14 13 12 11 20 28 29 32 28 27 26 24 23 27 31 29 24 21 10
13 13 16 11 14 6 9 12 11 9 10 11 9 9 9 11 10 10 8 4 6 12 13 15 15 15 16 20 21 26 29 29 30 31 29 24 27 31 33 25 24 17 15
14 13 16 14 12 9 8 10 11 11 11 10 9 11 12 10 11 11 7 5 10 11 11 13 15 16 19 19 25 28 30 29 32 30 32 35 37 37 28 26 26 22 22
15 14 14 19 13 13 10 11 10 10 9 11 10 11 12 10 10 10 2 6 11 13 13 15 15 18 19 22 28 32 30 30 30 31 34 31 31 29 20 19 19 20 18
17 15 15 17 16 11 13 11 11 10 10 10 10 11 12 9 8 8 5 9 14 19 20 20 21 22 23 21 27 28 29 32 32 31 28 25 25 24 9 16 19 18 18
18 17 16 15 13 12 11 12 12 10 12 12 11 11 9 8 8 8 9 11 14 19 21 20 22 27 23 20 20 26 30 34 32 28 22 23 18 17 17 17 16 3 18
20 19 17 17 15 13 11 12 13 13 13 12 13 12 10 9 9 9 12 11 16 19 19 18 19 18 16 18 16 24 30 30 29 25 20 19 18 19 16 9 8 10 12
21 20 19 18 15 15 12 12 14 14 13 12 12 12 11 12 10 9 12 15 12 16 18 18 16 16 17 14 22 29 30 25 24 22 20 20 20 17 15 11 11 9 9
22 21 21 19 17 16 14 13 13 14 12 14 15 15 15 15 13 13 15 12 15 16 19 17 17 13 11 19 25 24 15 19 21 20 20 19 15 15 14 13 11 10 10
23 23 22 21 19 18 16 14 13 10 9 10 10 19 15 15 16 18 19 17 19 20 19 15 12 12 15 17 18 16 15 19 20 19 19 18 16 17 16 15 14 14 11
23 24 23 22 23 20 19 14 7 12 8 5 8 10 11 15 25 22 19 18 19 23 17 16 15 16 17 19 19 16 16 17 17 17 17 17 18 18 16 16 15 15 14
25 25 24 22 23 22 21 19 18 8 15 9 8 6 15 25 24 25 21 17 17 22 15 16 17 17 18 20 20 20 18 19 16 16 16 16 16 17 17 16 17 17 16
27 26 24 25 23 23 22 21 20 20 18 16 13 10 12 18 19 25 24 20 18 20 20 18 17 18 19 20 21 21 22 20 20 19 18 18 18 19 19 20 20 20 19
30 27 27 25 23 23 22 22 21 21 21 20 20 16 16 18 20 23 25 22 21 22 22 20 19 19 20 21 21 23 23 23 23 22 20 21 21 22 21 21 21 22 20
31 29 30 25 24 23 23 22 21 21 22 23 24 24 19 22 19 20 23 23 23 23 23 23 21 21 22 23 23 23 23 22 21 24 25 24 24 24 25 24 23 22 21
31 29 32 25 25 25 24 24 23 23 22 23 25 28 32 30 27 27 27 27 27 25 24 25 25 24 23 23 24 24 25 25 26 25 24 24 24 25 26 24 22 22 21
30 30 32 30 26 26 26 25 24 24 24 23 23 23 38 32 31 30 30 30 31 30 28 25 26 26 27 27 26 26 27 26 25 25 25 26 27 26 25 25 23 22 21
30 31 30 31 28 27 27 27 26 25 25 25 24 22 36 31 28 30 31 30 30 31 30 29 27 27 27 27 28 28 28 28 27 28 29 28 27 26 25 24 25 23 23
31 31 30 30 30 29 27 27 27 27 27 26 25 25 29 30 28 29 28 29 30 30 30 30 31 31 28 26 26 27 30 28 27 28 29 28 27 25 26 25 24 24 22
28 28 28 28 29 29 28 27 26 27 27 26 25 26 26 27 28 29 29 30 28 30 30 30 30 30 32 32 30 30 29 31 31 29 26 28 27 25 24 23 21 19 23
28 28 27 26 27 27 27 26 26 27 27 27 26 25 27 27 28 28 29 29 32 31 31 30 31 32 31 31 34 34 33 32 32 33 29 23 22 23 23 22 22 21 25
Wind_Direction
165 174 142 159 176 141 150 184 146 170 157 164 147 126 129 134 127 109 117 147 175 178 179 235 269 124 126 112 127 128 134 133 120 120 136 136 134 132 135 139 144 141 141
169 170 154 170 148 122 155 177 159 174 179 167 146 140 134 123 92 112 132 147 134 164 180 186 163 130 109 124 131 125 125 141 129 125 125 126 122 130 138 135 136 137 135
169 166 144 147 130 135 146 158 182 167 173 169 146 125 119 89 100 101 121 137 152 171 185 174 167 150 121 144 147 131 129 130 129 130 126 126 127 128 128 130 127 125 128
167 155 138 158 135 148 152 163 173 167 162 165 146 113 111 101 109 116 131 152 153 149 146 115 137 145 140 143 140 133 129 123 124 127 123 130 126 125 123 120 116 131 125
165 152 130 150 136 139 144 152 157 162 158 157 120 124 118 119 106 109 123 143 138 132 124 122 123 134 122 118 142 137 138 131 125 125 128 122 127 126 128 130 132 131 134
161 151 138 158 129 149 144 145 154 155 154 143 141 126 123 116 129 119 124 130 123 122 109 109 116 128 122 119 140 139 142 136 133 131 134 132 130 129 135 139 137 138 125
165 148 135 164 135 173 154 146 138 130 121 128 128 118 119 123 125 125 109 126 105 108 114 116 113 114 118 122 135 146 146 134 140 141 134 133 132 145 144 147 151 147 142
165 156 157 148 145 173 143 148 139 137 137 136 137 131 125 126 126 124 112 118 118 115 114 118 120 119 120 120 128 127 125 137 143 137 144 150 154 153 146 153 156 145 140
163 164 157 138 159 157 144 142 146 133 134 141 144 144 138 137 135 141 60 121 116 112 111 112 115 120 133 126 132 131 130 133 149 154 157 153 159 154 146 155 149 138 148
164 168 160 153 161 155 140 156 149 138 135 152 144 147 139 137 138 146 127 131 119 110 102 102 115 128 126 130 132 136 131 140 148 150 151 155 159 163 178 171 160 162 165
164 165 161 151 151 142 145 150 144 123 120 130 139 144 138 133 147 151 134 142 132 123 120 117 125 123 124 123 134 142 145 152 154 149 147 162 170 182 183 189 205 257 182
167 165 164 155 163 151 155 153 151 134 132 135 136 138 136 132 143 150 147 140 137 136 130 128 135 146 135 133 136 139 135 143 151 154 158 163 170 178 179 172 180 178 168
171 168 166 166 167 154 159 158 151 153 148 147 152 138 141 137 140 149 160 145 145 132 136 136 127 140 148 128 139 141 139 150 156 160 164 171 174 171 173 172 174 162 136
174 172 170 173 174 166 168 174 162 177 176 162 155 137 148 147 142 147 150 149 153 142 142 138 129 125 142 147 153 161 174 161 164 167 168 166 154 161 171 171 159 143 133
177 176 176 179 181 173 184 180 180 184 177 169 153 150 151 154 156 154 158 156 157 156 149 151 150 149 142 150 165 188 191 169 175 169 172 171 177 177 178 178 177 173 173
179 181 182 183 184 181 186 175 194 174 196 105 135 170 162 170 157 161 170 165 170 158 163 170 176 178 173 175 179 186 173 185 187 179 180 186 186 185 182 185 188 190 188
187 182 184 192 182 190 190 186 183 167 192 195 167 127 145 156 163 171 178 176 170 172 191 195 195 193 192 189 191 195 194 192 199 196 193 198 196 196 186 194 199 202 208
190 187 189 195 187 197 194 195 189 184 188 198 200 182 153 168 175 179 181 178 176 195 211 205 204 200 202 199 202 202 204 200 204 207 205 204 204 204 201 208 209 212 212
188 191 200 191 195 196 196 200 199 189 190 191 187 190 183 176 183 185 187 191 197 204 212 225 211 207 208 212 211 211 210 210 204 208 211 209 208 211 213 215 219 214 210
192 196 195 192 199 193 201 200 202 203 192 193 189 191 183 182 183 194 201 210 215 213 214 220 223 217 214 215 214 215 217 216 211 205 214 216 212 212 218 215 222 214 210
196 198 193 205 200 195 203 202 204 203 204 202 200 192 186 191 198 203 208 213 221 226 224 223 225 226 225 224 222 219 218 217 216 218 215 220 218 219 219 226 221 224 211
200 198 195 207 200 200 202 205 206 208 206 206 207 200 187 187 204 209 212 215 220 225 231 228 226 226 225 225 226 224 227 226 223 218 220 224 223 221 222 223 227 221 207
208 203 193 205 212 202 196 204 205 210 210 209 207 193 182 195 209 211 213 215 215 220 227 236 238 234 232 227 222 225 227 227 223 219 219 222 227 225 221 224 224 222 205
215 207 201 200 213 205 202 205 208 208 209 211 209 210 190 203 212 219 217 218 216 215 217 223 228 235 236 234 230 227 228 230 230 230 226 225 227 228 225 225 223 226 198
216 221 207 197 210 216 206 204 212 213 212 217 213 213 219 205 212 219 221 224 220 219 220 219 222 227 231 233 232 232 232 228 227 230 230 228 227 230 228 225 225 210 182
225 231 212 209 201 217 215 206 208 214 215 208 219 218 219 222 224 215 217 225 230 229 220 222 225 226 228 231 232 232 235 233 231 230 230 236 228 225 229 219 214 189 168
Height
707 710 713 715 716 718 720 722 723 725 725 727 729 730 730 731 731 732 733 735 737 737 738 738 738 738 740 741 744 748 752 754 759 769 773 777 783 787 796 802 811 816 823
706 709 712 714 715 718 720 722 723 725 725 726 728 730 730 731 732 734 734 735 737 738 739 738 739 740 740 743 746 749 753 755 759 767 774 779 784 794 801 807 814 820 827
704 708 712 714 717 719 720 722 723 724 725 726 728 730 731 732 734 735 736 736 737 738 739 739 741 742 743 745 747 750 753 757 760 767 777 786 793 799 805 811 817 825 831
703 706 712 715 716 719 720 722 723 724 726 727 728 731 733 734 736 737 737 737 739 739 740 741 742 743 744 746 749 753 758 760 766 771 780 791 797 804 810 815 824 830 835
702 705 712 715 716 718 721 722 724 725 726 727 730 733 735 736 738 738 739 739 740 741 742 742 745 746 749 750 751 756 762 766 771 777 786 794 801 807 814 821 826 833 839
702 704 711 714 717 719 721 723 725 725 728 730 732 734 737 738 740 740 741 741 742 743 744 746 748 751 753 755 756 761 765 769 775 781 789 796 804 810 817 822 827 832 838
701 704 711 713 717 720 720 723 726 728 730 732 734 736 738 740 742 743 743 743 744 745 747 749 751 754 757 759 762 765 769 774 779 784 791 799 806 812 816 823 829 831 835
700 704 708 711 717 720 722 725 727 729 732 734 735 737 740 742 744 745 746 746 747 749 750 752 754 757 760 762 765 768 773 779 785 790 796 801 807 813 818 822 827 831 838
699 703 706 712 717 720 723 726 728 730 732 735 737 739 741 744 745 747 748 749 750 753 754 756 758 760 763 766 768 772 778 783 790 795 801 806 812 817 821 825 829 832 838
697 702 705 710 716 718 724 727 729 732 734 736 738 740 743 746 747 749 750 752 754 756 760 762 763 765 769 771 774 776 782 787 793 800 806 811 816 820 822 825 827 830 833
696 701 705 710 715 720 724 728 731 732 735 737 740 743 746 747 749 750 752 754 756 759 763 766 769 771 774 777 779 781 784 789 796 802 809 814 818 821 823 825 827 828 829
695 700 706 712 715 722 725 728 731 734 736 738 741 744 747 749 751 753 755 756 759 761 764 769 772 774 777 780 783 785 789 794 800 805 810 814 817 820 822 825 825 826 825
694 699 706 711 715 721 725 727 730 734 737 739 741 744 748 751 753 755 758 760 762 765 768 772 774 777 780 783 786 789 793 797 800 804 807 811 814 817 819 822 824 826 827
692 698 705 710 714 719 724 727 726 730 729 730 737 741 746 750 754 757 760 763 765 768 771 774 777 779 782 784 789 792 794 796 799 802 805 809 812 815 820 822 825 827 830
691 697 703 708 713 718 721 724 725 727 728 729 731 737 743 747 752 756 760 763 766 769 773 777 780 782 785 788 791 792 792 795 797 800 804 808 812 815 818 821 823 826 829
689 694 699 703 710 714 718 722 725 726 730 732 733 735 739 742 749 756 759 763 766 770 774 776 778 779 781 785 788 788 790 794 795 798 802 806 808 811 814 818 821 823 825
684 689 694 698 704 708 712 716 722 728 731 734 736 738 741 745 748 754 759 763 767 770 771 772 773 774 776 780 783 786 788 792 793 796 799 802 805 808 811 815 817 818 819
682 686 689 694 697 703 707 710 715 722 728 733 737 740 743 746 750 753 758 762 766 768 767 765 767 770 772 774 777 780 783 786 790 793 796 799 802 804 807 809 810 812 814
676 681 685 689 691 697 701 706 709 713 721 727 734 739 743 746 750 753 756 758 760 762 764 763 763 765 768 770 772 775 777 780 783 788 791 793 796 798 800 803 804 805 808
670 673 680 682 686 692 695 700 703 706 711 717 723 731 738 744 748 750 752 755 754 755 757 758 758 759 761 763 766 769 771 775 778 780 782 785 787 790 790 793 797 798 802
664 670 674 676 680 684 689 692 696 700 703 707 712 717 725 734 739 743 746 749 750 749 750 751 753 755 757 759 761 763 765 767 769 771 776 780 782 782 784 786 790 794 797
655 660 669 672 673 676 682 686 690 693 696 700 704 708 713 721 727 731 735 737 740 743 743 744 745 746 748 751 754 756 758 761 764 767 771 773 773 775 778 781 784 787 790
647 651 658 665 666 669 675 678 682 686 689 693 697 702 708 713 716 719 722 725 729 733 736 739 739 740 740 742 745 748 751 753 755 758 760 762 766 767 771 773 775 778 781
641 643 647 655 660 661 666 671 674 677 681 685 689 692 698 703 707 710 713 716 718 720 724 728 731 733 734 736 738 740 742 745 748 750 754 756 757 760 763 767 769 772 777
636 637 640 645 651 654 657 662 667 670 675 678 681 685 688 693 697 701 703 705 707 710 712 715 718 721 724 726 728 731 733 736 740 742 745 748 751 754 758 761 766 768 771
633 632 633 637 642 646 650 653 658 663 664 669 673 676 679 682 686 690 695 699 701 700 701 704 707 710 713 716 718 721 725 727 731 735 739 740 743 748 752 755 761 765 769